Location: Unspecified
(0.0000°N, 0.0000°E)
Time: 00:59:47
(UTC+00:00)

deb Explorer IX - Visible Passes

Search period start: 26 May 2019 00:00
Search period end: 05 June 2019 00:00
Orbit: 538 x 1114 km, 38.8° (Epoch: 25 May)

Date Brightness Start Highest point End Pass type
(mag) Time Alt. Az. Time Alt. Az. Time Alt. Az.
26 May ? 19:29:49 10° SSW 19:32:41 21° S 19:32:41 21° S visible
27 May ? 19:07:48 10° SSW 19:13:05 27° SE 19:13:33 27° SE visible
27 May ? 20:54:42 10° WSW 20:55:03 11° WSW 20:55:03 11° WSW visible
28 May ? 18:45:48 10° SSW 18:51:21 29° SE 18:54:41 17° E visible
28 May ? 20:32:51 10° WSW 20:36:13 30° W 20:36:13 30° W visible
29 May ? 18:23:47 10° SSW 18:29:35 30° SE 18:34:42 10° E visible
29 May ? 20:10:57 10° WSW 20:16:51 45° NW 20:17:41 42° NNW visible
30 May ? 19:49:04 10° WSW 19:55:07 44° NW 19:59:24 15° NNE visible
31 May ? 19:27:10 10° WSW 19:33:21 43° NW 19:38:39 10° NNE visible
01 Jun ? 19:05:15 10° WSW 19:11:34 43° NW 19:17:01 10° NNE visible
02 Jun ? 18:43:21 10° WSW 18:49:46 42° NW 18:55:22 10° NNE visible
03 Jun ? 18:21:26 10° WSW 18:27:58 42° NW 18:33:42 10° NNE visible
04 Jun ? 05:17:15 10° NW 05:21:29 82° NE 05:26:21 10° SE visible
